TimeCDT,TemperatureF,Dew PointF,Humidity,Sea Level PressureIn,VisibilityMPH,Wind Direction,Wind SpeedMPH,Gust SpeedMPH,PrecipitationIn,Events,Conditions,WindDirDegrees,DateUTC
12:15 AM,30.6,24.1,77,30.24,10.0,SSE,4.6,-,N/A,,Clear,150,2012-10-28 05:15:00
12:55 AM,30.4,24.4,79,30.24,10.0,SSE,5.8,-,N/A,,Clear,150,2012-10-28 05:55:00
1:15 AM,30.7,24.8,79,30.24,10.0,SSE,5.8,-,N/A,,Clear,150,2012-10-28 06:15:00
1:35 AM,30.0,24.6,80,30.24,10.0,SSE,4.6,-,N/A,,Clear,150,2012-10-28 06:35:00
1:55 AM,28.2,23.4,82,30.24,10.0,SSE,4.6,-,N/A,,Clear,150,2012-10-28 06:55:00
2:15 AM,27.1,23.0,84,30.24,10.0,SE,5.8,-,N/A,,Clear,140,2012-10-28 07:15:00
2:35 AM,27.0,23.2,86,30.24,10.0,SE,4.6,-,N/A,,Clear,140,2012-10-28 07:35:00
2:55 AM,28.2,23.4,82,30.24,10.0,SSE,5.8,-,N/A,,Clear,150,2012-10-28 07:55:00
3:15 AM,28.2,23.2,81,30.24,10.0,SSE,5.8,-,N/A,,Clear,160,2012-10-28 08:15:00
3:35 AM,29.1,23.5,80,30.23,10.0,SSE,6.9,-,N/A,,Clear,160,2012-10-28 08:35:00
3:55 AM,28.8,23.0,79,30.23,10.0,SSE,5.8,-,N/A,,Clear,160,2012-10-28 08:55:00
4:15 AM,28.8,23.0,79,30.22,10.0,SSE,4.6,-,N/A,,Clear,160,2012-10-28 09:15:00
4:35 AM,28.4,23.0,80,30.22,10.0,SSE,5.8,-,N/A,,Clear,150,2012-10-28 09:35:00
4:55 AM,28.4,23.0,80,30.22,10.0,SSE,5.8,-,N/A,,Clear,150,2012-10-28 09:55:00
5:15 AM,28.2,22.8,80,30.21,10.0,SSE,5.8,-,N/A,,Clear,150,2012-10-28 10:15:00
5:35 AM,27.9,23.2,83,30.21,10.0,SSE,5.8,-,N/A,,Clear,150,2012-10-28 10:35:00
5:55 AM,28.2,23.2,81,30.21,10.0,SSE,5.8,-,N/A,,Clear,150,2012-10-28 10:55:00
6:15 AM,27.9,23.2,83,30.22,10.0,SSE,6.9,-,N/A,,Clear,160,2012-10-28 11:15:00
6:35 AM,28.4,23.9,83,30.21,10.0,SSE,5.8,-,N/A,,Clear,150,2012-10-28 11:35:00
6:55 AM,27.7,23.4,84,30.22,10.0,SE,4.6,-,N/A,,Clear,140,2012-10-28 11:55:00
7:15 AM,28.2,23.9,84,30.22,10.0,SSE,5.8,-,N/A,,Clear,150,2012-10-28 12:15:00
7:35 AM,28.2,23.9,84,30.24,10.0,SSE,4.6,-,N/A,,Clear,160,2012-10-28 12:35:00
7:55 AM,28.0,23.7,84,30.24,10.0,SSE,5.8,-,N/A,,Clear,160,2012-10-28 12:55:00
8:15 AM,28.0,23.7,84,30.25,10.0,SSE,5.8,-,N/A,,Clear,160,2012-10-28 13:15:00
8:35 AM,28.9,24.3,83,30.25,10.0,SSE,5.8,-,N/A,,Clear,160,2012-10-28 13:35:00
8:55 AM,30.9,25.0,79,30.25,10.0,SSE,5.8,-,N/A,,Clear,160,2012-10-28 13:55:00
9:15 AM,32.0,25.9,78,30.25,10.0,SSE,8.1,-,N/A,,Clear,160,2012-10-28 14:15:00
9:35 AM,33.1,25.9,75,30.25,10.0,South,11.5,-,N/A,,Clear,170,2012-10-28 14:35:00
9:55 AM,35.6,27.1,71,30.24,10.0,South,10.4,-,N/A,,Clear,180,2012-10-28 14:55:00
10:15 AM,37.9,27.9,67,30.24,10.0,South,12.7,-,N/A,,Clear,190,2012-10-28 15:15:00
10:35 AM,39.0,27.1,62,30.22,10.0,South,11.5,-,N/A,,Clear,170,2012-10-28 15:35:00
10:55 AM,40.6,26.6,57,30.22,10.0,South,13.8,-,N/A,,Clear,170,2012-10-28 15:55:00
11:15 AM,42.8,27.1,54,30.21,10.0,South,16.1,20.7,N/A,,Clear,170,2012-10-28 16:15:00
11:35 AM,44.4,26.6,50,30.22,10.0,South,15.0,21.9,N/A,,Clear,190,2012-10-28 16:35:00
12:15 PM,46.9,27.1,46,30.22,10.0,South,12.7,20.7,N/A,,Scattered Clouds,180,2012-10-28 17:15:00
12:35 PM,48.4,26.4,42,30.21,10.0,South,13.8,20.7,N/A,,Scattered Clouds,190,2012-10-28 17:35:00
12:55 PM,49.1,25.9,40,30.21,10.0,South,15.0,23.0,N/A,,Clear,180,2012-10-28 17:55:00
1:15 PM,50.0,25.7,39,30.20,10.0,South,15.0,19.6,N/A,,Scattered Clouds,180,2012-10-28 18:15:00
1:35 PM,50.7,24.8,36,30.18,10.0,South,15.0,20.7,N/A,,Scattered Clouds,180,2012-10-28 18:35:00
1:55 PM,50.7,24.4,36,30.17,10.0,South,15.0,21.9,N/A,,Scattered Clouds,180,2012-10-28 18:55:00
2:15 PM,52.5,25.5,35,30.16,10.0,South,17.3,-,N/A,,Scattered Clouds,170,2012-10-28 19:15:00
2:35 PM,53.2,24.3,32,30.16,10.0,South,16.1,24.2,N/A,,Scattered Clouds,180,2012-10-28 19:35:00
2:55 PM,52.9,23.9,32,30.15,10.0,South,16.1,23.0,N/A,,Mostly Cloudy,180,2012-10-28 19:55:00
3:15 PM,52.3,23.7,33,30.13,10.0,South,17.3,23.0,N/A,,Overcast,170,2012-10-28 20:15:00
3:35 PM,52.3,24.1,33,30.14,10.0,South,16.1,21.9,N/A,,Overcast,170,2012-10-28 20:35:00
3:55 PM,52.0,24.6,35,30.13,10.0,South,16.1,21.9,N/A,,Overcast,190,2012-10-28 20:55:00
4:15 PM,52.3,25.0,35,30.13,10.0,South,15.0,19.6,N/A,,Overcast,180,2012-10-28 21:15:00
4:35 PM,52.2,24.8,35,30.13,10.0,South,16.1,20.7,N/A,,Overcast,170,2012-10-28 21:35:00
4:55 PM,52.0,25.0,35,30.13,10.0,South,13.8,20.7,N/A,,Overcast,170,2012-10-28 21:55:00
5:15 PM,51.8,25.5,36,30.12,10.0,South,16.1,20.7,N/A,,Overcast,180,2012-10-28 22:15:00
5:35 PM,50.9,25.3,37,30.12,10.0,South,15.0,-,N/A,,Overcast,170,2012-10-28 22:35:00
5:55 PM,50.5,25.9,38,30.12,10.0,South,13.8,-,N/A,,Overcast,170,2012-10-28 22:55:00
6:15 PM,49.6,25.9,40,30.12,10.0,South,15.0,-,N/A,,Overcast,170,2012-10-28 23:15:00
6:35 PM,48.9,26.4,42,30.12,10.0,South,12.7,-,N/A,,Overcast,170,2012-10-28 23:35:00
6:55 PM,48.2,27.1,44,30.12,10.0,South,10.4,17.3,N/A,,Overcast,170,2012-10-28 23:55:00
7:15 PM,48.2,27.3,44,30.12,10.0,South,11.5,-,N/A,,Overcast,170,2012-10-29 00:15:00
7:35 PM,48.2,27.3,44,30.12,10.0,South,11.5,-,N/A,,Overcast,170,2012-10-29 00:35:00
7:55 PM,47.5,27.5,46,30.12,10.0,South,11.5,17.3,N/A,,Overcast,170,2012-10-29 00:55:00
8:15 PM,47.3,28.0,47,30.13,10.0,SSE,11.5,-,N/A,,Overcast,160,2012-10-29 01:15:00
8:55 PM,47.3,27.0,45,30.12,10.0,South,12.7,-,N/A,,Overcast,170,2012-10-29 01:55:00
9:15 PM,47.5,26.4,44,30.12,10.0,SSE,13.8,-,N/A,,Overcast,160,2012-10-29 02:15:00
9:35 PM,47.3,26.4,44,30.13,10.0,SSE,11.5,-,N/A,,Overcast,160,2012-10-29 02:35:00
9:55 PM,47.3,26.6,45,30.13,10.0,SSE,13.8,-,N/A,,Overcast,160,2012-10-29 02:55:00
10:15 PM,46.6,27.3,47,30.13,10.0,SSE,12.7,-,N/A,,Overcast,160,2012-10-29 03:15:00
10:35 PM,46.4,27.5,48,30.13,10.0,SSE,11.5,-,N/A,,Overcast,150,2012-10-29 03:35:00
10:55 PM,46.0,27.9,49,30.13,10.0,SSE,13.8,-,N/A,,Overcast,150,2012-10-29 03:55:00
11:15 PM,45.7,28.4,51,30.13,10.0,SSE,13.8,-,N/A,,Mostly Cloudy,150,2012-10-29 04:15:00
11:55 PM,45.5,28.4,51,30.13,10.0,SSE,11.5,-,N/A,,Mostly Cloudy,150,2012-10-29 04:55:00